Presure
166 166 195 202 200 208 130 136 217 229 189 198 208 136 169 219 234 240 365 265 255 241 218 191 81 87 79 189 144 180 226 177 166 199 191 190 161 201 168 201 127 176 169 145
181 178 178 184 185 187 208 217 219 156 229 205 152 127 142 231 222 240 241 294 250 247 223 207 204 180 184 158 178 152 194 159 187 174 153 194 181 137 153 173 173 180 185 213
201 203 204 207 205 209 198 147 221 219 216 220 217 140 168 204 223 222 230 358 269 247 227 214 207 153 185 122 199 153 139 203 174 190 184 216 166 198 190 166 164 145 198 169
198 195 201 214 210 203 200 206 210 208 210 202 156 148 194 173 212 221 238 233 270 261 242 224 210 227 191 199 179 162 199 91 118 200 213 122 184 135 147 185 173 182 162 142
213 216 211 235 224 217 218 232 223 218 210 204 215 154 182 195 215 221 238 234 470 271 257 237 217 213 211 201 182 222 170 161 174 192 189 125 184 178 191 161 138 226 182 161
210 209 217 222 223 224 229 233 236 229 218 221 217 179 238 184 191 212 231 245 245 325 261 250 224 221 210 181 195 210 200 181 141 184 183 141 184 138 157 151 130 177 160 91
216 207 231 224 216 212 222 220 223 238 229 231 226 216 150 133 212 193 226 240 249 438 272 258 237 230 215 199 188 192 195 169 170 200 175 95 173 93 113 198 108 155 131 119
221 221 231 224 225 210 209 204 217 224 233 214 203 225 234 221 140 207 225 223 244 405 402 259 254 237 217 212 193 202 203 189 189 182 201 139 97 199 97 106 97 171 131 179
240 244 243 237 240 239 236 213 230 224 214 215 226 221 217 181 236 172 198 217 234 247 421 275 250 252 225 183 182 195 182 203 192 196 188 197 210 215 152 179 200 180 177 77
244 244 248 247 253 252 260 255 236 207 214 212 215 216 226 182 213 133 208 218 222 235 445 372 268 235 221 187 208 197 197 192 210 153 136 129 189 154 200 197 76 98 168 129
236 237 244 239 230 230 248 242 237 259 233 202 202 209 213 224 188 198 175 203 219 230 258 453 277 213 197 217 187 201 194 163 193 175 212 186 187 183 184 144 73 90 214 175
264 253 271 265 252 258 252 246 239 226 252 268 231 201 147 207 220 212 183 166 215 226 230 347 456 208 200 187 199 178 208 203 190 199 187 189 180 76 83 172 175 165 200 177
234 245 265 258 197 231 160 239 240 250 247 276 243 278 204 212 215 216 211 137 177 217 223 242 352 198 221 207 178 203 210 184 191 182 181 182 203 200 180 197 196 177 201 198
267 277 285 292 266 264 267 279 273 276 256 282 259 236 257 254 249 218 218 154 195 195 213 223 239 208 240 200 203 195 192 196 206 194 202 204 183 214 195 188 205 182 177 189
291 302 298 306 294 286 288 291 286 276 267 280 258 227 232 221 233 252 258 212 173 160 213 215 223 247 265 195 236 200 192 184 188 187 179 189 193 184 181 213 214 193 186 183
306 317 302 305 314 299 308 307 305 288 288 278 275 261 218 230 249 260 160 219 193 147 199 210 217 223 222 268 297 203 202 191 189 188 191 190 216 186 204 200 194 188 185 198
302 300 310 321 318 306 303 302 307 297 287 278 277 259 258 235 249 253 238 273 222 180 204 163 211 218 215 221 224 242 196 193 191 202 192 199 190 187 210 187 183 180 180 190
517 405 290 296 299 298 243 100 246 308 298 275 268 241 271 270 247 241 262 269 234 216 183 191 168 205 213 222 219 227 227 240 227 202 202 195 189 190 187 183 190 187 186 191
463 487 513 410 312 260 68 258 78 75 122 285 274 280 153 279 259 255 258 239 267 233 229 205 199 201 154 210 214 215 205 225 237 231 203 204 204 203 200 198 203 202 193 188
416 436 465 517 451 421 342 118 284 286 315 295 299 219 263 270 258 255 252 256 244 257 227 221 195 195 189 137 199 210 214 214 219 224 226 236 244 278 396 314 227 211 203 201
412 425 458 499 497 546 490 165 276 300 79 136 207 215 239 264 264 259 255 250 259 261 253 234 230 159 206 221 179 194 154 201 184 209 213 176 225 226 238 266 387 378 300 235
350 387 391 382 401 478 656 404 295 280 274 182 218 280 285 255 248 253 256 267 253 255 261 245 222 231 180 200 213 188 164 197 193 235 211 162 194 213 221 227 249 308 375 380
340 389 375 371 360 387 545 444 323 275 278 274 289 284 275 288 244 299 260 277 295 308 300 259 237 226 227 200 200 210 235 202 195 199 123 126 140 197 204 183 208 217 235 273
347 350 349 342 328 335 462 470 370 301 276 277 280 287 293 293 301 294 297 299 292 300 288 254 263 241 226 234 233 190 172 148 200 203 201 210 201 197 200 134 162 233 207 198
325 320 309 312 313 318 339 424 342 271 270 264 271 274 282 285 288 300 305 303 295 292 282 261 248 269 247 216 240 233 219 200 204 212 199 196 174 189 201 206 200 193 196 200
305 312 311 309 308 294 322 351 354 315 280 271 264 262 274 282 281 287 290 288 292 285 277 265 254 286 263 249 246 241 238 227 229 194 199 234 213 209 197 210 159 190 196 192
Wind_Speed
71 70 69 67 68 65 51 48 59 54 48 46 26 47 23 21 28 29 82 88 93 87 88 87 27 28 27 78 54 63 58 61 57 55 57 60 61 65 56 64 44 57 54 56
73 74 74 73 72 70 66 62 58 45 50 41 31 41 42 19 14 25 13 88 92 93 86 92 96 71 80 68 63 49 60 55 60 64 60 62 60 44 46 52 60 58 56 46
70 72 71 69 71 65 67 53 61 57 55 44 45 47 39 28 10 16 12 86 94 99 91 98 97 68 82 54 85 66 52 77 65 65 66 64 50 61 61 59 52 41 53 49
76 80 76 73 74 70 73 69 64 63 56 51 41 38 40 32 14 9 19 14 85 97 100 99 98 106 87 92 67 57 78 38 44 66 64 49 66 46 47 67 54 56 56 47
73 72 73 70 73 70 71 67 68 66 60 57 46 46 48 40 36 15 18 14 33 106 105 101 100 97 99 91 76 93 70 60 69 75 75 49 73 67 71 50 48 52 65 54
82 78 75 72 69 69 69 63 63 66 64 62 56 47 43 41 40 29 17 17 19 98 110 107 107 100 96 78 77 84 81 77 48 79 70 54 73 52 54 51 39 46 42 28
90 84 91 81 73 71 66 65 66 59 60 58 59 51 50 51 40 36 25 23 23 25 113 111 102 104 96 84 78 81 83 72 61 86 62 42 58 36 44 62 43 50 45 42
95 91 95 88 85 78 75 75 71 61 54 56 56 58 49 41 53 38 29 23 22 19 49 116 111 109 93 88 82 85 87 86 87 77 90 64 44 73 47 43 39 54 44 55
106 98 95 95 93 89 83 77 72 70 63 56 57 61 53 47 43 46 40 25 25 23 31 116 105 114 96 83 85 90 80 86 89 90 68 86 78 73 66 68 68 59 58 30
101 95 88 84 83 81 82 84 82 74 68 60 58 63 59 56 40 51 37 23 25 17 24 67 115 95 88 83 91 94 92 85 95 70 64 51 68 57 73 65 25 36 60 51
101 100 91 86 76 80 81 78 75 78 76 67 62 64 64 60 53 48 50 36 26 20 19 25 108 82 80 81 77 93 93 72 91 64 86 63 66 61 62 45 29 36 74 57
100 104 91 85 86 83 84 75 73 74 72 73 71 63 65 64 55 47 50 49 30 24 18 16 21 83 89 74 92 67 102 102 85 96 73 73 63 35 41 59 57 67 80 60
102 99 95 86 71 77 61 76 81 79 76 69 63 58 79 77 62 58 49 57 51 37 29 27 19 82 86 89 65 98 105 78 86 70 67 63 89 87 63 83 83 67 85 87
112 108 107 98 90 91 87 88 83 80 75 66 63 65 66 77 77 63 53 61 57 49 46 38 35 80 91 90 93 86 87 101 107 98 99 101 75 102 86 80 98 74 68 81
115 114 111 106 99 96 92 90 86 78 71 71 66 64 69 68 67 68 71 60 66 54 51 51 46 37 57 87 88 97 97 82 91 87 67 92 95 73 71 104 101 94 88 82
106 107 109 104 93 94 92 90 87 78 77 66 68 67 71 72 73 68 71 66 72 57 62 58 59 47 55 45 57 103 106 89 95 95 105 98 111 83 108 101 101 86 86 102
106 106 103 98 92 94 96 78 79 80 76 70 67 69 72 75 71 69 61 69 72 67 70 57 65 61 62 62 67 63 103 100 93 112 102 110 94 87 119 95 90 79 81 103
49 85 107 99 93 96 66 9 60 79 75 71 70 74 68 69 76 70 71 68 75 77 73 72 60 70 66 60 67 64 78 66 100 114 115 110 94 93 91 88 104 101 104 107
31 38 49 82 95 78 15 60 21 20 27 71 69 69 40 70 77 77 72 65 75 77 80 76 77 72 54 72 70 66 58 61 59 83 116 112 114 114 110 111 120 119 112 107
27 31 36 37 78 82 75 34 75 75 66 68 69 57 73 75 77 82 75 73 69 79 81 77 80 79 73 49 72 72 67 68 64 63 66 62 61 50 45 93 132 128 120 120
17 23 28 30 39 46 68 33 73 74 23 29 60 60 76 75 78 79 75 72 73 73 83 84 79 67 81 76 65 76 53 75 73 72 70 56 61 61 53 46 56 64 106 131
12 5 8 4 11 24 36 64 71 69 69 44 53 74 74 74 68 71 73 75 73 75 79 88 85 81 77 76 79 76 63 76 72 66 72 61 66 64 58 52 43 48 65 77
9 6 9 7 5 9 14 53 64 72 71 71 70 73 75 71 69 68 74 75 74 73 80 85 91 83 85 86 79 86 79 83 77 80 38 36 44 66 69 60 60 58 49 44
21 23 26 21 8 5 8 37 55 70 72 72 74 71 70 70 68 69 66 67 73 74 82 85 89 95 90 91 90 89 79 66 88 89 87 83 79 71 68 53 65 49 64 53
16 18 15 15 14 7 7 17 48 69 72 72 72 71 69 68 67 63 62 64 71 75 83 87 83 90 95 88 93 91 91 89 94 92 90 85 72 72 76 73 69 71 70 69
23 25 23 23 20 20 8 9 22 57 72 74 72 72 70 68 66 63 63 66 68 74 82 87 83 86 90 93 95 97 96 95 95 92 89 87 88 84 80 74 65 76 78 78
Wind_Direction
275 276 275 277 279 281 263 261 290 295 289 292 295 274 296 332 355 12 195 205 208 204 205 212 235 234 253 230 234 243 235 230 235 230 231 232 246 231 240 241 246 253 252 260
273 275 278 279 280 281 282 285 287 265 294 288 256 269 272 327 339 354 350 205 215 208 206 211 215 224 226 229 228 236 228 233 233 235 240 236 236 244 247 248 251 253 256 255
267 269 271 273 273 276 278 266 286 285 288 286 290 262 275 287 316 330 324 210 213 218 208 213 220 228 229 239 231 233 238 231 234 235 237 222 234 232 237 249 254 254 252 254
267 268 270 276 272 272 274 277 279 280 282 279 266 243 275 271 267 271 333 338 217 218 216 215 219 218 225 227 232 236 236 250 240 235 228 243 229 237 245 248 259 252 254 251
274 275 275 280 275 275 275 276 277 278 278 279 280 267 273 272 284 246 310 289 249 217 218 218 221 223 224 226 230 227 235 233 236 234 233 236 238 247 240 249 242 248 256 253
272 269 276 275 272 274 273 271 272 273 275 279 278 260 286 261 266 270 279 316 326 214 217 218 219 223 225 228 230 229 232 235 228 238 230 240 242 238 239 242 252 245 251 254
276 269 282 276 267 268 270 270 272 270 269 273 274 273 246 255 273 264 277 302 335 245 212 216 218 219 223 221 226 227 229 232 241 235 228 245 239 246 247 242 251 252 252 257
276 276 278 276 273 263 263 266 269 267 266 263 267 271 272 269 252 262 278 269 312 247 218 214 215 218 220 221 221 225 228 234 237 243 237 240 242 239 250 249 251 250 257 262
273 270 269 272 273 272 271 262 266 265 263 262 263 267 267 249 272 254 254 266 298 321 218 211 216 215 216 219 224 224 233 228 237 238 240 245 242 233 242 245 241 263 264 266
273 273 272 272 270 272 270 266 266 259 257 259 257 263 264 252 252 252 250 256 273 303 232 212 214 215 212 223 218 223 228 233 225 242 240 240 237 248 250 256 277 264 259 260
273 272 270 271 269 265 266 266 266 264 263 255 257 258 262 259 244 236 253 242 252 268 292 230 215 208 219 219 229 222 231 227 238 240 229 248 243 243 255 249 277 268 251 259
268 267 266 263 262 261 262 264 264 262 260 255 255 255 239 256 252 240 242 244 234 245 242 274 237 210 215 226 222 235 225 229 241 240 245 250 254 261 262 245 255 252 262 266
269 270 265 263 260 260 248 258 256 256 256 255 256 251 252 253 248 242 239 249 237 228 218 226 234 218 216 218 232 225 226 243 241 246 247 250 252 253 256 256 258 253 262 263
267 268 268 264 260 261 262 263 259 256 253 255 251 250 247 249 253 241 230 245 232 226 217 214 225 220 223 221 222 229 234 236 234 249 245 246 258 245 262 263 257 271 267 268
264 264 264 261 262 261 260 258 257 255 250 249 241 244 246 245 249 242 243 226 237 245 218 213 213 220 224 227 226 227 231 242 244 249 249 253 255 259 262 254 252 264 270 271
259 259 259 259 258 257 256 254 253 253 253 248 240 237 243 245 242 240 236 224 229 248 224 218 211 212 218 221 228 226 228 237 240 245 248 254 240 260 255 257 263 267 271 264
256 257 254 253 254 252 250 253 254 250 246 246 238 234 233 238 239 237 234 232 225 232 224 237 217 211 212 219 223 229 232 237 243 238 246 247 252 256 248 262 264 267 267 268
258 249 256 254 249 250 248 258 248 249 247 243 238 238 233 229 237 237 234 231 224 227 235 233 237 222 217 217 220 224 231 233 235 240 242 244 253 256 256 259 259 260 264 267
262 252 251 238 245 249 249 243 218 214 229 243 238 236 230 226 231 233 232 227 225 224 226 228 231 229 245 223 221 222 227 226 231 236 240 244 247 250 253 254 254 255 258 263
262 256 253 252 237 237 235 233 238 240 236 240 240 235 228 224 227 231 229 230 225 224 228 225 233 234 236 252 230 226 226 228 230 233 236 241 245 252 237 244 247 252 255 256
274 281 264 251 255 255 235 230 238 237 234 247 239 231 232 227 226 230 231 230 230 228 224 228 228 237 231 229 240 240 241 234 243 235 239 250 244 246 253 255 238 237 242 248
238 329 82 209 324 283 239 221 228 233 232 230 235 235 234 231 231 232 234 232 231 230 227 226 231 230 232 231 234 241 244 241 242 235 238 256 250 244 248 250 256 249 237 231
230 172 130 150 192 242 253 210 215 224 226 229 232 235 234 235 232 236 234 234 232 230 230 227 228 230 233 228 234 235 234 240 240 246 249 253 264 245 248 254 250 251 254 251
114 99 103 113 160 212 200 202 217 217 224 226 229 232 234 236 237 236 234 232 229 228 229 228 228 229 233 234 236 242 244 255 240 240 244 241 248 249 250 242 263 246 251 256
133 129 170 172 137 173 190 196 208 222 226 228 228 230 232 234 235 238 236 231 228 226 227 230 231 229 229 236 235 237 237 238 240 239 244 250 256 251 252 251 251 258 259 259
133 129 126 131 138 198 149 155 190 214 223 225 228 231 232 232 233 234 234 232 229 227 226 231 233 232 229 231 235 237 238 239 241 249 249 243 243 247 255 253 262 260 262 263